Miscellaneous Local Product
Issued by NWS Hastings, NE

Home | Current Version | Previous Version | Text Only | Print | Product List | Glossary On
Versions: 1 2 3 4 5 6 7 8 9 10 11 12 13 14 15 16 17 18 19 20 21 22 23 24 25 26 27 28 29 30 31 32 33 34 35 36 37 38 39 40 41 42 43 44 45 46 47 48 49 50
000
AXUS43 KGID 031302
MISGRI

GID CWA HOURLY WEATHER ROUNDUP
NATIONAL WEATHER SERVICE HASTINGS NE
800 AM CDT THU SEP 03 2015

NOTE: "FAIR" INDICATES FEW OR NO CLOUDS BELOW 12,000 FEET WITH NO
SIGNIFICANT WEATHER AND/OR OBSTRUCTIONS TO VISIBILITY.

...SOUTH CENTRAL NEBRASKA...

CITY           SKY/WX    TMP DP  RH WIND       PRES   REMARKS
GRAND ISLAND   SUNNY     72  62  71 S10       29.84R
HASTINGS       CLEAR     71  62  73 S7        29.84R
KEARNEY        PTCLDY    70  59  68 S8        29.84R
ORD            CLEAR     62  60  93 CALM      29.82R
YORK           SUNNY     70  64  83 S8        29.85R
AURORA         SUNNY     71  65  81 S7        29.84S
LEXINGTON      CLEAR     68  61  77 E3        29.83S
HOLDREGE       PTCLDY    69  59  71 S9        29.84S
HEBRON         SUNNY     74  61  64 S10       29.85S

...NEBRASKA PANHANDLE...

CITY           SKY/WX    TMP DP  RH WIND       PRES   REMARKS
CHADRON        PTCLDY    64  47  53 SW3       29.84R
ALLIANCE       PTCLDY    54  51  90 CALM      29.90S
SCOTTSBLUFF    PTCLDY    59  52  77 NW3       29.92R
SIDNEY         PTCLDY    62  45  53 CALM      29.95R

...WESTERN AND NORTH CENTRAL NEBRASKA...

CITY           SKY/WX    TMP DP  RH WIND       PRES   REMARKS
VALENTINE      CLEAR     62  58  86 CALM      29.83R
AINSWORTH      CLEAR     64  61  92 CALM      29.83
ONEILL         CLEAR     64  63  96 S7        29.82R
BROKEN BOW     CLEAR     63  61  93 CALM      29.84R
IMPERIAL       CLEAR     63  56  78 NW5       29.86S
NORTH PLATTE   CLEAR     61  59  93 CALM      29.85R
MCCOOK         CLEAR     63  57  81 SW6       29.83R

...EASTERN NEBRASKA...

CITY           SKY/WX    TMP DP  RH WIND       PRES   REMARKS
NORFOLK        SUNNY     67  65  93 E5        29.83R
SO SIOUX CITY  SUNNY     70  65  84 SE7       29.84R
TEKAMAH        SUNNY     71  69  93 SE8       29.85R
COLUMBUS       SUNNY     72  63  73 S5        29.84S
ALBION         SUNNY     66  64  92 SE3       29.83S
OMAHA EPPLEY   MOSUNNY   75  68  78 S9        29.86R
OFFUTT AFB     SUNNY     72  68  87 SE7       29.86R
MILLARD        SUNNY     73  68  86 SE5       29.86R
LINCOLN        SUNNY     76  65  68 S13       29.84R
NEBRASKA CITY  MOSUNNY   72  64  76 S12       29.88R
BEATRICE       SUNNY     73  65  74 S10       29.87R
FALLS CITY     PTSUNNY   74  67  78 S10       29.90R

...NORTHERN KANSAS...

CITY           SKY/WX    TMP DP  RH WIND       PRES   REMARKS
GOODLAND       CLEAR     64  53  67 W6        29.88S
HILL CITY      CLEAR     72  58  61 S7        29.85R
NORTON         SUNNY     70  55  60 SE5       29.84R
PHILLIPSBURG   CLEAR     73  61  64 CALM      29.84S
SMITH CENTER   CLEAR     72  61  68 SE7       29.86R
HAYS           CLEAR     73  55  53 S14       29.87R
RUSSELL        CLEAR     74  60  61 S16       29.85S
CONCORDIA      MOSUNNY   75  61  61 S20G28    29.86R
SALINA         MOSUNNY   77  61  57 S14G24    29.88S
TOPEKA         MOSUNNY   76  67  73 S3        29.94R



USA.gov is the U.S. government's official web portal to all federal, state and local government web resources and services.